Starlink 32022

operational
NORAD ID: 60149 Int'l Des: 2024-120 Owner: SPXS Country: US Constellation: starlink
LEOCIRCULAR

关于 Starlink 32022

正在加载描述...

实时位置

正在加载3D地球...

即将过境

高度历史

Altitude vs Time

uPlot chart will show altitude changes over time

两行轨道根数

1 60149U 24120Q 25259.14874514 .00000990 00000-0 45547-4 0 9993
2 60149 53.1624 50.6119 0001047 89.3635 270.7486 15.30191832 69733
Epoch: Sep 16, 2025 • Age: 8 hours

当前状态

高度 480.9 km
速度 7.63 km/s
星下点 52.51°N, 46.89°W
发射日期 Jun 27, 2024
运行时间 1.2 years
类型 internet

技术详情

分类 Payload
质量 730.00 kg
干质量 700.00 kg
总质量 730.00 kg
长度 0.30 m
直径 4.10 m
跨度 29.00 m
形状 Box + pan
制造商 SPXS
平台类型 Starlink V2M
阶段状态 In Orbit
所有者/国家 SPXS/US

大型星座

Loading constellations...